Weather History for Truckee-Tahoe, CA

Change the Weather History Date:

Tuesday, April 15, 2014

  Actual Average Record
Temperature  
Mean Temperature 44 °F -  
Max Temperature 64 °F 54 °F 74 °F (1985)
Min Temperature 24 °F 26 °F 12 °F (1975)
Degree Days  
Heating Degree Days 21    
Moisture  
Dew Point 28 °F    
Average Humidity 67    
Maximum Humidity 100    
Minimum Humidity 18    
Precipitation  
Precipitation 0.00 in - - ()
Sea Level Pressure  
Sea Level Pressure 30.11 in    
Wind  
Wind Speed 3 mph (SW)    
Max Wind Speed 15 mph    
Max Gust Speed 21 mph    
Visibility 10 miles    
Events      
Averages and records for this station are not official NWS values.
T = Trace of Precipitation, MM = Missing Value Source: NWS Daily Summary

Daily Weather History Graph

Daily Weather History Graph

Search for Another Location

Airport:

Trip Planner

Search our weather history database for the weather conditions in past years. The results will help you decide how hot, cold, wet, or windy it might be!

Date:

Astronomy

Apr. 15, 2014 Rise Set
Actual Time 6:23 AM PDT 7:38 PM PDT
Civil Twilight 5:55 AM PDT 8:06 PM PDT
Nautical Twilight 5:22 AM PDT 8:39 PM PDT
Astronomical Twilight 4:47 AM PDT 9:14 PM PDT
Moon 8:24 PM PDT (4/15) 6:34 AM PDT (4/15)
Length of Visible Light 14h 10m
Length of Day
13h 14m
Full, 100% of the Moon is Illuminated
Apr 15
Full
Apr 22
Last Quarter
Apr 28
New
May 6
First Quarter
May 14
Full

Hourly Weather History & Observations

Time (PDT) Temp. Windchill Dew Point Humidity Pressure Visibility Wind Dir Wind Speed Gust Speed Precip Events Conditions
12:15 AM 35.6 °F - 30.2 °F 81% 30.21 in 10.0 mi Calm Calm - N/A   Clear
12:35 AM 35.6 °F - 32.0 °F 87% 30.21 in 10.0 mi Calm Calm - N/A   Clear
12:55 AM 32.0 °F - 28.4 °F 87% 30.21 in 10.0 mi Calm Calm - N/A   Clear
1:15 AM 32.0 °F 28.7 °F 28.4 °F 87% 30.21 in 10.0 mi SSE 3.5 mph - N/A   Clear
1:35 AM 30.2 °F 25.4 °F 26.6 °F 86% 30.20 in 10.0 mi South 4.6 mph - N/A   Clear
1:55 AM 32.0 °F - 28.4 °F 87% 30.19 in 10.0 mi Calm Calm - N/A   Clear
2:15 AM 33.8 °F - 30.2 °F 87% 30.19 in 10.0 mi Calm Calm - N/A   Clear
2:35 AM 30.2 °F - 26.6 °F 86% 30.17 in 10.0 mi Calm Calm - N/A   Clear
2:55 AM 32.0 °F - 30.2 °F 93% 30.17 in 10.0 mi Calm Calm - N/A   Clear
3:15 AM 32.0 °F - 28.4 °F 87% 30.17 in 10.0 mi Calm Calm - N/A   Clear
3:35 AM 30.2 °F 26.7 °F 26.6 °F 86% 30.16 in 10.0 mi ESE 3.5 mph - N/A   Clear
3:55 AM 32.0 °F - 26.6 °F 80% 30.16 in 10.0 mi Calm Calm - N/A   Clear
4:15 AM 32.0 °F - 28.4 °F 87% 30.16 in 10.0 mi Calm Calm - N/A   Clear
4:35 AM 30.2 °F 25.4 °F 26.6 °F 86% 30.15 in 10.0 mi SSE 4.6 mph - N/A   Clear
4:55 AM 30.2 °F 24.3 °F 28.4 °F 93% 30.15 in 10.0 mi NW 5.8 mph - N/A   Clear
5:15 AM 30.2 °F - 28.4 °F 93% 30.16 in 10.0 mi Calm Calm - N/A   Clear
5:35 AM 30.2 °F - 26.6 °F 86% 30.16 in 10.0 mi Calm Calm - N/A   Clear
5:55 AM 24.8 °F 20.5 °F 23.0 °F 93% 30.16 in 10.0 mi SW 3.5 mph - N/A   Clear
6:15 AM 30.2 °F - 28.4 °F 93% 30.15 in 10.0 mi Calm Calm - N/A   Clear
6:35 AM 26.6 °F - 26.6 °F 100% 30.15 in 10.0 mi Calm Calm - N/A   Clear
6:50 AM 26.6 °F - 24.8 °F 93% 30.16 in 10.0 mi Calm Calm - N/A   Clear
7:45 AM 32.0 °F - 28.4 °F 87% 30.17 in 10.0 mi Calm Calm - N/A   Clear
8:45 AM 41.0 °F - 30.2 °F 65% 30.14 in 10.0 mi Calm Calm - N/A   Partly Cloudy
9:55 AM 53.6 °F - 28.4 °F 38% 30.11 in 10.0 mi Calm Calm - N/A   Scattered Clouds
10:45 AM 59.0 °F - 15.8 °F 19% 30.11 in 10.0 mi WNW 10.4 mph - N/A   Partly Cloudy
11:45 AM 62.6 °F - 17.6 °F 18% 30.11 in 10.0 mi West 8.1 mph 20.7 mph N/A   Scattered Clouds
12:55 PM 64.4 °F - 19.4 °F 18% 30.10 in 10.0 mi West 15.0 mph 18.4 mph N/A   Scattered Clouds
1:55 PM 62.6 °F - 21.2 °F 20% 30.08 in 10.0 mi West 10.4 mph 20.7 mph N/A   Mostly Cloudy
2:45 PM 64.4 °F - 23.0 °F 21% 30.08 in 10.0 mi West 13.8 mph 20.7 mph N/A   Mostly Cloudy
3:55 PM 64.4 °F - 26.6 °F 24% 30.06 in 10.0 mi West 10.4 mph - N/A   Mostly Cloudy
4:50 PM 62.6 °F - 30.2 °F 30% 30.05 in 10.0 mi WNW 5.8 mph - N/A   Mostly Cloudy
5:45 PM 60.8 °F - 30.2 °F 31% 30.04 in 10.0 mi WSW 10.4 mph - N/A   Mostly Cloudy
6:15 PM 59.0 °F - 30.2 °F 34% 30.04 in 10.0 mi WNW 9.2 mph 17.3 mph N/A   Clear
6:35 PM 57.2 °F - 32.0 °F 38% 30.04 in 10.0 mi West 10.4 mph - N/A   Clear
6:55 PM 55.4 °F - 32.0 °F 41% 30.04 in 10.0 mi West 10.4 mph - N/A   Clear
7:15 PM 55.4 °F - 32.0 °F 41% 30.04 in 10.0 mi WSW 5.8 mph - N/A   Clear
7:35 PM 51.8 °F - 32.0 °F 47% 30.04 in 10.0 mi WSW 3.5 mph - N/A   Clear
7:55 PM 50.0 °F - 32.0 °F 50% 30.04 in 10.0 mi Calm Calm - N/A   Clear
8:15 PM 46.4 °F 44.3 °F 32.0 °F 57% 30.04 in 10.0 mi SSE 4.6 mph - N/A   Clear
8:35 PM 44.6 °F 43.1 °F 32.0 °F 61% 30.06 in 10.0 mi South 3.5 mph - N/A   Clear
8:55 PM 42.8 °F 41.1 °F 32.0 °F 66% 30.06 in 10.0 mi SE 3.5 mph - N/A   Clear
9:15 PM 42.8 °F 41.1 °F 30.2 °F 61% 30.06 in 10.0 mi SSE 3.5 mph - N/A   Clear
9:35 PM 42.8 °F - 32.0 °F 66% 30.06 in 10.0 mi Calm Calm - N/A   Clear
9:55 PM 42.8 °F - 32.0 °F 66% 30.06 in 10.0 mi Calm Calm - N/A   Clear
10:15 PM 37.4 °F - 30.2 °F 75% 30.07 in 10.0 mi Calm Calm - N/A   Clear
10:35 PM 35.6 °F 31.7 °F 30.2 °F 81% 30.07 in 10.0 mi SSE 4.6 mph - N/A   Clear
10:55 PM 37.4 °F - 32.0 °F 81% 30.06 in 10.0 mi Calm Calm - N/A   Clear
11:15 PM 35.6 °F 32.8 °F 30.2 °F 81% 30.06 in 10.0 mi SW 3.5 mph - N/A   Clear
11:35 PM 35.6 °F - 30.2 °F 81% 30.05 in 10.0 mi Calm Calm - N/A   Clear
11:55 PM 35.6 °F - 30.2 °F 81% 30.05 in 10.0 mi Calm Calm - N/A   Clear